Time,TemperatureF,DewpointF,PressureIn,WindDirection,WindDirectionDegrees,WindSpeedMPH,WindSpeedGustMPH,Humidity,HourlyPrecipIn,Conditions,Clouds,dailyrainin,SoftwareType,DateUTC
2013-07-24 00:02:00,73.5,64.7,28.78,NE,40,3.5,3.5,74,0.00,RA,,0.00,WeatherDisplay:10.37,2013-07-24 05:02:00,
2013-07-24 00:07:00,73.3,64.5,28.78,NE,43,5.0,5.0,74,0.00,RA,,0.00,WeatherDisplay:10.37,2013-07-24 05:07:00,
2013-07-24 00:12:00,73.1,63.9,28.79,NE,51,5.0,5.0,73,0.00,CLR,,0.00,WeatherDisplay:10.37,2013-07-24 05:12:00,
2013-07-24 00:17:00,73.0,63.8,28.78,ENE,58,11.0,11.0,73,0.00,CLR,,0.00,WeatherDisplay:10.37,2013-07-24 05:17:00,
2013-07-24 00:22:00,72.6,63.4,28.79,ENE,74,10.4,10.4,73,0.00,CLR,,0.00,WeatherDisplay:10.37,2013-07-24 05:22:00,
2013-07-24 00:27:00,72.4,63.3,28.80,NE,49,8.1,8.1,73,0.00,CLR,,0.00,WeatherDisplay:10.37,2013-07-24 05:27:00,
2013-07-24 00:32:00,72.5,63.0,28.80,ENE,59,5.8,5.8,72,0.00,CLR,,0.00,WeatherDisplay:10.37,2013-07-24 05:32:00,
2013-07-24 00:38:00,72.3,63.2,28.80,ENE,70,5.8,5.8,73,0.00,CLR,,0.00,WeatherDisplay:10.37,2013-07-24 05:38:00,
2013-07-24 00:43:00,72.0,62.9,28.81,NE,41,4.6,4.6,73,0.00,CLR,,0.00,WeatherDisplay:10.37,2013-07-24 05:43:00,
2013-07-24 00:48:00,71.8,62.3,28.80,NE,52,4.6,4.6,72,0.00,CLR,,0.00,WeatherDisplay:10.37,2013-07-24 05:48:00,
2013-07-24 00:53:00,71.6,62.5,28.80,ENE,66,4.6,4.6,73,0.00,CLR,,0.00,WeatherDisplay:10.37,2013-07-24 05:53:00,
2013-07-24 00:58:00,71.6,62.5,28.80,ENE,60,3.5,3.5,73,0.00,CLR,,0.00,WeatherDisplay:10.37,2013-07-24 05:58:00,
2013-07-24 01:03:00,71.5,62.0,28.79,ENE,68,6.9,6.9,72,0.00,CLR,,0.00,WeatherDisplay:10.37,2013-07-24 06:03:00,
2013-07-24 01:08:00,71.3,62.2,28.79,ENE,57,8.1,8.1,73,0.00,CLR,,0.00,WeatherDisplay:10.37,2013-07-24 06:08:00,
2013-07-24 01:13:00,71.1,62.4,28.79,North,359,3.5,3.5,74,0.00,CLR,,0.00,WeatherDisplay:10.37,2013-07-24 06:13:00,
2013-07-24 01:18:00,71.1,62.0,28.79,ENE,66,5.0,5.0,73,0.00,CLR,,0.00,WeatherDisplay:10.37,2013-07-24 06:18:00,
2013-07-24 01:23:00,71.0,61.9,28.79,ENE,73,5.8,5.8,73,0.00,CLR,,0.00,WeatherDisplay:10.37,2013-07-24 06:23:00,
2013-07-24 01:28:00,70.8,62.1,28.79,NE,46,4.6,4.6,74,0.00,CLR,,0.00,WeatherDisplay:10.37,2013-07-24 06:28:00,
2013-07-24 01:33:00,70.6,61.9,28.79,ENE,63,10.4,10.4,74,0.00,CLR,,0.00,WeatherDisplay:10.37,2013-07-24 06:33:00,
2013-07-24 01:38:00,70.4,61.7,28.81,ENE,69,8.0,8.0,74,0.00,CLR,,0.00,WeatherDisplay:10.37,2013-07-24 06:38:00,
2013-07-24 01:43:00,70.2,61.5,28.80,ENE,66,4.6,4.6,74,0.00,CLR,,0.00,WeatherDisplay:10.37,2013-07-24 06:43:00,
2013-07-24 01:48:00,70.3,61.6,28.81,NE,38,6.9,6.9,74,0.00,CLR,,0.00,WeatherDisplay:10.37,2013-07-24 06:48:00,
2013-07-24 01:54:00,70.1,61.4,28.80,ENE,61,6.0,6.0,74,0.00,CLR,,0.00,WeatherDisplay:10.37,2013-07-24 06:54:00,
2013-07-24 01:59:00,70.0,61.3,28.81,NE,38,8.1,8.1,74,0.00,CLR,,0.00,WeatherDisplay:10.37,2013-07-24 06:59:00,
2013-07-24 02:04:00,70.0,61.7,28.80,North,0,8.1,8.1,75,0.00,CLR,,0.00,WeatherDisplay:10.37,2013-07-24 07:04:00,
2013-07-24 02:09:00,69.8,61.5,28.80,ENE,59,5.8,5.8,75,0.00,CLR,,0.00,WeatherDisplay:10.37,2013-07-24 07:09:00,
2013-07-24 02:14:00,69.8,61.5,28.80,East,86,3.5,3.5,75,0.00,CLR,,0.00,WeatherDisplay:10.37,2013-07-24 07:14:00,
2013-07-24 02:19:00,69.6,61.3,28.81,NE,53,10.4,10.4,75,0.00,CLR,,0.00,WeatherDisplay:10.37,2013-07-24 07:19:00,
2013-07-24 02:24:00,69.6,61.3,28.81,ENE,60,7.0,7.0,75,0.00,CLR,,0.00,WeatherDisplay:10.37,2013-07-24 07:24:00,
2013-07-24 02:29:00,69.5,61.2,28.81,ENE,58,5.8,5.8,75,0.00,CLR,,0.00,WeatherDisplay:10.37,2013-07-24 07:29:00,
2013-07-24 02:34:00,69.3,61.4,28.82,NE,53,8.1,8.1,76,0.00,CLR,,0.00,WeatherDisplay:10.37,2013-07-24 07:34:00,
2013-07-24 02:39:00,69.1,61.2,28.82,ENE,62,9.2,9.2,76,0.00,CLR,,0.00,WeatherDisplay:10.37,2013-07-24 07:39:00,
2013-07-24 02:44:00,69.1,61.2,28.82,NE,45,8.1,8.1,76,0.00,CLR,,0.00,WeatherDisplay:10.37,2013-07-24 07:44:00,
2013-07-24 02:49:00,69.0,61.5,28.82,NE,55,3.5,3.5,77,0.00,CLR,,0.00,WeatherDisplay:10.37,2013-07-24 07:49:00,
2013-07-24 02:54:00,68.8,61.3,28.82,NE,44,5.8,5.8,77,0.00,CLR,,0.00,WeatherDisplay:10.37,2013-07-24 07:54:00,
2013-07-24 02:59:00,68.8,61.3,28.82,ENE,60,6.9,6.9,77,0.00,CLR,,0.00,WeatherDisplay:10.37,2013-07-24 07:59:00,
2013-07-24 03:04:00,68.6,61.5,28.82,NE,43,5.8,5.8,78,0.00,CLR,,0.00,WeatherDisplay:10.37,2013-07-24 08:04:00,
2013-07-24 03:09:00,68.6,61.1,28.82,East,79,5.8,5.8,77,0.00,CLR,,0.00,WeatherDisplay:10.37,2013-07-24 08:09:00,
2013-07-24 03:14:00,68.4,61.3,28.82,ENE,68,8.1,8.1,78,0.00,CLR,,0.00,WeatherDisplay:10.37,2013-07-24 08:14:00,
2013-07-24 03:19:00,68.3,61.2,28.83,East,82,3.5,3.5,78,0.00,CLR,,0.00,WeatherDisplay:10.37,2013-07-24 08:19:00,
2013-07-24 03:25:00,68.3,61.2,28.84,ENE,57,3.5,3.5,78,0.00,CLR,,0.00,WeatherDisplay:10.37,2013-07-24 08:25:00,
2013-07-24 03:30:00,68.1,61.0,28.83,NE,43,6.9,6.9,78,0.00,CLR,,0.00,WeatherDisplay:10.37,2013-07-24 08:30:00,
2013-07-24 03:35:00,67.9,60.8,28.83,ENE,59,8.1,8.1,78,0.00,CLR,,0.00,WeatherDisplay:10.37,2013-07-24 08:35:00,
2013-07-24 03:40:00,68.0,60.9,28.84,NE,55,6.9,6.9,78,0.00,CLR,,0.00,WeatherDisplay:10.37,2013-07-24 08:40:00,
2013-07-24 03:45:00,67.8,60.7,28.84,NE,51,4.0,4.0,78,0.00,CLR,,0.00,WeatherDisplay:10.37,2013-07-24 08:45:00,
2013-07-24 03:50:00,67.8,61.0,28.84,ENE,77,3.5,3.5,79,0.00,CLR,,0.00,WeatherDisplay:10.37,2013-07-24 08:50:00,
2013-07-24 03:55:00,67.6,60.9,28.84,NE,34,3.5,3.5,79,0.00,CLR,,0.00,WeatherDisplay:10.37,2013-07-24 08:55:00,
2013-07-24 04:00:00,67.5,60.8,28.84,ENE,57,4.0,4.0,79,0.00,CLR,,0.00,WeatherDisplay:10.37,2013-07-24 09:00:00,
2013-07-24 04:02:00,67.5,60.8,28.84,NE,56,5.8,5.8,79,0.00,SCT,,0.00,WeatherDisplay:10.37,2013-07-24 09:02:00,
2013-07-24 04:07:00,67.5,60.4,28.84,ENE,74,4.6,4.6,78,0.00,SCT,,0.00,WeatherDisplay:10.37,2013-07-24 09:07:00,
2013-07-24 04:12:00,67.3,60.6,28.83,ENE,72,3.5,3.5,79,0.00,SCT,,0.00,WeatherDisplay:10.37,2013-07-24 09:12:00,
2013-07-24 04:17:00,67.3,60.6,28.83,NE,55,3.5,3.5,79,0.00,SCT,,0.00,WeatherDisplay:10.37,2013-07-24 09:17:00,
2013-07-24 04:23:00,67.3,60.6,28.84,ENE,64,4.6,4.6,79,0.00,SCT,,0.00,WeatherDisplay:10.37,2013-07-24 09:23:00,
2013-07-24 04:28:00,67.1,60.7,28.83,ENE,70,3.5,3.5,80,0.00,SCT,,0.00,WeatherDisplay:10.37,2013-07-24 09:28:00,
2013-07-24 04:33:00,67.1,60.7,28.84,NE,42,4.6,4.6,80,0.00,SCT,,0.00,WeatherDisplay:10.37,2013-07-24 09:33:00,
2013-07-24 04:38:00,67.1,60.4,28.83,ENE,76,6.9,6.9,79,0.00,SCT,,0.00,WeatherDisplay:10.37,2013-07-24 09:38:00,
2013-07-24 04:43:00,67.0,60.6,28.84,NE,43,6.9,6.9,80,0.00,SCT,,0.00,WeatherDisplay:10.37,2013-07-24 09:43:00,
2013-07-24 04:48:00,67.0,60.6,28.83,ENE,63,3.5,3.5,80,0.00,SCT,,0.00,WeatherDisplay:10.37,2013-07-24 09:48:00,
2013-07-24 04:53:00,66.9,60.5,28.84,East,85,3.5,3.5,80,0.00,SCT,,0.00,WeatherDisplay:10.37,2013-07-24 09:53:00,
2013-07-24 04:58:00,66.9,60.5,28.83,NE,54,4.6,4.6,80,0.00,SCT,,0.00,WeatherDisplay:10.37,2013-07-24 09:58:00,
2013-07-24 05:03:00,67.1,60.7,28.84,ENE,65,4.6,4.6,80,0.00,CLR,,0.00,WeatherDisplay:10.37,2013-07-24 10:03:00,
2013-07-24 05:08:00,67.1,60.7,28.83,NE,55,4.6,4.6,80,0.00,CLR,,0.00,WeatherDisplay:10.37,2013-07-24 10:08:00,
2013-07-24 05:13:00,67.1,60.7,28.85,ENE,68,3.5,3.5,80,0.00,CLR,,0.00,WeatherDisplay:10.37,2013-07-24 10:13:00,
2013-07-24 05:18:00,67.1,60.4,28.85,ENE,72,6.9,6.9,79,0.00,CLR,,0.00,WeatherDisplay:10.37,2013-07-24 10:18:00,
2013-07-24 05:23:00,67.1,60.4,28.85,ENE,72,3.5,3.5,79,0.00,CLR,,0.00,WeatherDisplay:10.37,2013-07-24 10:23:00,
2013-07-24 05:28:00,67.3,60.6,28.84,ENE,58,4.6,4.6,79,0.00,CLR,,0.00,WeatherDisplay:10.37,2013-07-24 10:28:00,
2013-07-24 05:33:00,67.5,60.8,28.86,NE,56,4.6,4.6,79,0.00,CLR,,0.00,WeatherDisplay:10.37,2013-07-24 10:33:00,
2013-07-24 05:38:00,67.5,60.4,28.85,ENE,68,5.0,5.0,78,0.00,CLR,,0.00,WeatherDisplay:10.37,2013-07-24 10:38:00,
2013-07-24 05:43:00,67.5,60.4,28.85,ENE,57,4.6,4.6,78,0.00,CLR,,0.00,WeatherDisplay:10.37,2013-07-24 10:43:00,
2013-07-24 05:48:00,67.5,60.8,28.85,NE,48,6.9,6.9,79,0.00,CLR,,0.00,WeatherDisplay:10.37,2013-07-24 10:48:00,
2013-07-24 05:53:00,67.3,60.2,28.85,NE,40,3.5,3.5,78,0.00,CLR,,0.00,WeatherDisplay:10.37,2013-07-24 10:53:00,
2013-07-24 05:58:00,67.1,60.0,28.86,NE,51,4.0,4.0,78,0.00,CLR,,0.00,WeatherDisplay:10.37,2013-07-24 10:58:00,
2013-07-24 06:03:00,67.1,60.0,28.86,NE,51,2.3,2.3,78,0.00,BKN,,0.00,WeatherDisplay:10.37,2013-07-24 11:03:00,
2013-07-24 06:08:00,67.0,59.9,28.86,NE,51,3.5,3.5,78,0.00,BKN,,0.00,WeatherDisplay:10.37,2013-07-24 11:08:00,
2013-07-24 06:14:00,66.8,59.7,28.85,NE,51,2.3,2.3,78,0.00,BKN,,0.00,WeatherDisplay:10.37,2013-07-24 11:14:00,
2013-07-24 06:19:00,66.8,59.7,28.86,NE,51,3.5,3.5,78,0.00,BKN,,0.00,WeatherDisplay:10.37,2013-07-24 11:19:00,
2013-07-24 06:24:00,66.6,59.9,28.86,NE,51,3.5,3.5,79,0.00,BKN,,0.00,WeatherDisplay:10.37,2013-07-24 11:24:00,
2013-07-24 06:29:00,66.5,60.1,28.85,NE,51,3.5,3.5,80,0.00,BKN,,0.00,WeatherDisplay:10.37,2013-07-24 11:29:00,
2013-07-24 06:34:00,66.5,60.1,28.86,ENE,60,2.0,2.0,80,0.00,BKN,,0.00,WeatherDisplay:10.37,2013-07-24 11:34:00,
2013-07-24 06:39:00,66.3,59.6,28.87,ENE,64,3.5,3.5,79,0.00,BKN,,0.00,WeatherDisplay:10.37,2013-07-24 11:39:00,
2013-07-24 06:44:00,66.3,59.9,28.86,ENE,57,2.3,2.3,80,0.00,BKN,,0.00,WeatherDisplay:10.37,2013-07-24 11:44:00,
2013-07-24 06:49:00,66.3,59.9,28.86,NE,55,3.5,3.5,80,0.00,BKN,,0.00,WeatherDisplay:10.37,2013-07-24 11:49:00,
2013-07-24 06:54:00,66.3,59.9,28.86,ENE,65,3.5,3.5,80,0.00,BKN,,0.00,WeatherDisplay:10.37,2013-07-24 11:54:00,
2013-07-24 06:59:00,66.5,61.2,28.85,ENE,63,4.0,4.0,83,0.01,RA,,0.01,WeatherDisplay:10.37,2013-07-24 11:59:00,
2013-07-24 07:04:00,66.0,61.4,28.86,ENE,57,3.5,3.5,85,0.01,RA,,0.02,WeatherDisplay:10.37,2013-07-24 12:04:00,
2013-07-24 07:09:00,65.5,61.2,28.86,NE,49,3.5,3.5,86,0.03,RA,,0.03,WeatherDisplay:10.37,2013-07-24 12:09:00,
2013-07-24 07:14:00,65.0,61.0,28.86,North,2,4.6,4.6,87,0.04,RA,,0.04,WeatherDisplay:10.37,2013-07-24 12:14:00,
2013-07-24 07:19:00,64.8,61.2,28.85,NNE,25,8.1,8.1,88,0.05,RA,,0.05,WeatherDisplay:10.37,2013-07-24 12:19:00,
2013-07-24 07:24:00,64.5,60.9,28.86,NE,34,3.5,3.5,88,0.05,RA,,0.05,WeatherDisplay:10.37,2013-07-24 12:24:00,
2013-07-24 07:29:00,64.5,61.2,28.86,NE,41,1.1,1.1,89,0.05,OVC,,0.05,WeatherDisplay:10.37,2013-07-24 12:29:00,
2013-07-24 07:34:00,64.6,61.3,28.86,NE,50,3.5,3.5,89,0.05,OVC,,0.05,WeatherDisplay:10.37,2013-07-24 12:34:00,
2013-07-24 07:39:00,64.5,61.5,28.85,ENE,63,3.5,3.5,90,0.05,OVC,,0.05,WeatherDisplay:10.37,2013-07-24 12:39:00,
2013-07-24 07:44:00,64.5,61.2,28.86,East,79,5.8,5.8,89,0.05,OVC,,0.05,WeatherDisplay:10.37,2013-07-24 12:44:00,
2013-07-24 07:49:00,64.9,61.3,28.86,East,89,3.5,3.5,88,0.05,OVC,,0.05,WeatherDisplay:10.37,2013-07-24 12:49:00,
2013-07-24 07:54:00,65.0,61.4,28.87,ENE,73,6.9,6.9,88,0.05,OVC,,0.05,WeatherDisplay:10.37,2013-07-24 12:54:00,
2013-07-24 07:59:00,65.2,61.2,28.86,NE,51,5.8,5.8,87,0.04,OVC,,0.05,WeatherDisplay:10.37,2013-07-24 12:59:00,
2013-07-24 08:04:00,65.5,61.5,28.86,ENE,60,3.5,3.5,87,0.04,OVC,,0.05,WeatherDisplay:10.37,2013-07-24 13:04:00,
2013-07-24 08:09:00,66.0,62.0,28.85,ENE,76,4.6,4.6,87,0.02,OVC,,0.05,WeatherDisplay:10.37,2013-07-24 13:09:00,
2013-07-24 08:14:00,66.3,62.0,28.86,East,81,3.5,3.5,86,0.01,CLR,,0.05,WeatherDisplay:10.37,2013-07-24 13:14:00,
2013-07-24 08:19:00,66.8,62.1,28.87,NE,49,3.5,3.5,85,0.00,CLR,,0.05,WeatherDisplay:10.37,2013-07-24 13:19:00,
2013-07-24 08:24:00,67.3,62.6,28.86,ENE,76,4.6,4.6,85,0.00,CLR,,0.05,WeatherDisplay:10.37,2013-07-24 13:24:00,
2013-07-24 08:29:00,67.8,62.4,28.86,ENE,57,6.9,6.9,83,0.00,CLR,,0.05,WeatherDisplay:10.37,2013-07-24 13:29:00,
2013-07-24 08:34:00,68.3,62.6,28.86,ENE,58,6.0,6.0,82,0.00,CLR,,0.05,WeatherDisplay:10.37,2013-07-24 13:34:00,
2013-07-24 08:39:00,68.8,62.4,28.87,NE,53,5.8,5.8,80,0.00,CLR,,0.05,WeatherDisplay:10.37,2013-07-24 13:39:00,
2013-07-24 08:44:00,69.3,63.2,28.87,NE,51,3.5,3.5,81,0.00,CLR,,0.05,WeatherDisplay:10.37,2013-07-24 13:44:00,
2013-07-24 08:49:00,69.8,63.3,28.87,NE,50,8.1,8.1,80,0.00,CLR,,0.05,WeatherDisplay:10.37,2013-07-24 13:49:00,
2013-07-24 08:54:00,70.1,62.9,28.87,NE,53,4.6,4.6,78,0.00,CLR,,0.05,WeatherDisplay:10.37,2013-07-24 13:54:00,
2013-07-24 08:59:00,70.6,63.0,28.86,ENE,74,5.8,5.8,77,0.00,CLR,,0.05,WeatherDisplay:10.37,2013-07-24 13:59:00,
2013-07-24 09:04:00,71.4,63.1,28.87,NNE,28,8.1,8.1,75,0.00,CLR,,0.05,WeatherDisplay:10.37,2013-07-24 14:04:00,
2013-07-24 09:09:00,71.9,62.4,28.87,ENE,71,3.5,3.5,72,0.00,CLR,,0.05,WeatherDisplay:10.37,2013-07-24 14:09:00,
2013-07-24 09:14:00,72.5,63.0,28.88,NE,46,5.0,5.0,72,0.00,CLR,,0.05,WeatherDisplay:10.37,2013-07-24 14:14:00,
2013-07-24 09:19:00,73.0,62.6,28.87,NE,50,8.1,8.1,70,0.00,CLR,,0.05,WeatherDisplay:10.37,2013-07-24 14:19:00,
2013-07-24 09:25:00,73.2,62.8,28.88,East,91,5.0,5.0,70,0.00,CLR,,0.05,WeatherDisplay:10.37,2013-07-24 14:25:00,
2013-07-24 09:30:00,73.3,62.5,28.88,ENE,62,6.0,6.0,69,0.00,CLR,,0.05,WeatherDisplay:10.37,2013-07-24 14:30:00,
2013-07-24 09:35:00,73.3,62.5,28.88,NE,51,6.9,6.9,69,0.00,CLR,,0.05,WeatherDisplay:10.37,2013-07-24 14:35:00,
2013-07-24 09:40:00,73.5,62.7,28.87,NE,44,3.5,3.5,69,0.00,CLR,,0.05,WeatherDisplay:10.37,2013-07-24 14:40:00,
2013-07-24 09:45:00,73.7,62.9,28.88,NE,44,2.3,2.3,69,0.00,CLR,,0.05,WeatherDisplay:10.37,2013-07-24 14:45:00,
2013-07-24 09:50:00,74.0,63.2,28.87,NE,44,3.5,3.5,69,0.00,CLR,,0.05,WeatherDisplay:10.37,2013-07-24 14:50:00,
2013-07-24 09:55:00,74.5,62.8,28.88,NE,36,3.5,3.5,67,0.00,CLR,,0.05,WeatherDisplay:10.37,2013-07-24 14:55:00,
2013-07-24 10:00:00,74.5,62.8,28.89,NE,36,1.1,1.1,67,0.00,CLR,,0.05,WeatherDisplay:10.37,2013-07-24 15:00:00,
2013-07-24 10:05:00,74.8,63.1,28.89,ENE,63,4.6,4.6,67,0.00,CLR,,0.05,WeatherDisplay:10.37,2013-07-24 15:05:00,
2013-07-24 10:10:00,74.8,62.7,28.89,NE,37,4.0,4.0,66,0.00,CLR,,0.05,WeatherDisplay:10.37,2013-07-24 15:10:00,
2013-07-24 10:15:00,75.0,62.9,28.88,East,80,3.5,3.5,66,0.00,CLR,,0.05,WeatherDisplay:10.37,2013-07-24 15:15:00,
2013-07-24 10:20:00,75.2,62.2,28.89,NE,53,5.8,5.8,64,0.00,CLR,,0.05,WeatherDisplay:10.37,2013-07-24 15:20:00,
2013-07-24 10:25:00,75.4,62.8,28.89,NE,54,5.8,5.8,65,0.00,CLR,,0.05,WeatherDisplay:10.37,2013-07-24 15:25:00,
2013-07-24 10:30:00,75.4,62.4,28.90,ENE,65,3.5,3.5,64,0.00,CLR,,0.05,WeatherDisplay:10.37,2013-07-24 15:30:00,
2013-07-24 10:35:00,75.4,62.4,28.89,WSW,246,3.5,3.5,64,0.00,CLR,,0.05,WeatherDisplay:10.37,2013-07-24 15:35:00,
2013-07-24 10:40:00,75.6,63.0,28.90,NNE,24,3.5,3.5,65,0.00,CLR,,0.05,WeatherDisplay:10.37,2013-07-24 15:40:00,
2013-07-24 10:45:00,75.4,62.8,28.89,ENE,67,1.1,1.1,65,0.00,CLR,,0.05,WeatherDisplay:10.37,2013-07-24 15:45:00,
2013-07-24 10:50:00,75.6,63.0,28.90,NE,34,3.5,3.5,65,0.00,CLR,,0.05,WeatherDisplay:10.37,2013-07-24 15:50:00,
2013-07-24 10:55:00,75.9,63.3,28.90,North,0,3.5,3.5,65,0.00,CLR,,0.05,WeatherDisplay:10.37,2013-07-24 15:55:00,
2013-07-24 11:00:00,75.9,61.9,28.89,North,350,3.5,3.5,62,0.00,CLR,,0.05,WeatherDisplay:10.37,2013-07-24 16:00:00,
2013-07-24 11:05:00,75.9,62.8,28.90,NNW,330,4.0,4.0,64,0.00,CLR,,0.05,WeatherDisplay:10.37,2013-07-24 16:05:00,
2013-07-24 11:10:00,75.8,61.8,28.89,NW,316,2.3,2.3,62,0.00,CLR,,0.05,WeatherDisplay:10.37,2013-07-24 16:10:00,
2013-07-24 11:15:00,76.1,63.9,28.90,NW,316,2.3,2.3,66,0.00,CLR,,0.05,WeatherDisplay:10.37,2013-07-24 16:15:00,
2013-07-24 11:20:00,76.6,62.1,28.90,ENE,69,4.6,4.6,61,0.00,CLR,,0.05,WeatherDisplay:10.37,2013-07-24 16:20:00,
2013-07-24 11:25:00,77.0,62.0,28.90,North,6,3.0,3.0,60,0.00,CLR,,0.05,WeatherDisplay:10.37,2013-07-24 16:25:00,
2013-07-24 11:30:00,77.3,62.3,28.89,WNW,300,3.5,3.5,60,0.00,CLR,,0.05,WeatherDisplay:10.37,2013-07-24 16:30:00,
2013-07-24 11:35:00,77.4,61.9,28.89,NNW,330,2.3,2.3,59,0.00,CLR,,0.05,WeatherDisplay:10.37,2013-07-24 16:35:00,
2013-07-24 11:41:00,77.3,62.3,28.89,NNW,331,2.3,2.3,60,0.00,CLR,,0.05,WeatherDisplay:10.37,2013-07-24 16:41:00,
2013-07-24 11:46:00,77.9,63.8,28.90,NNW,332,2.3,2.3,62,0.00,CLR,,0.05,WeatherDisplay:10.37,2013-07-24 16:46:00,
2013-07-24 11:51:00,78.6,63.1,28.89,NNE,24,3.5,3.5,59,0.00,CLR,,0.05,WeatherDisplay:10.37,2013-07-24 16:51:00,
2013-07-24 11:56:00,79.0,61.5,28.89,SE,128,2.3,2.3,55,0.00,CLR,,0.05,WeatherDisplay:10.37,2013-07-24 16:56:00,
2013-07-24 12:01:00,79.0,62.5,28.90,WSW,239,1.1,1.1,57,0.00,CLR,,0.05,WeatherDisplay:10.37,2013-07-24 17:01:00,
2013-07-24 12:07:00,79.4,62.8,28.90,NNE,21,4.0,4.0,57,0.00,CLR,,0.05,WeatherDisplay:10.37,2013-07-24 17:07:00,
2013-07-24 12:12:00,79.2,62.1,28.89,NNE,33,6.9,6.9,56,0.00,CLR,,0.05,WeatherDisplay:10.37,2013-07-24 17:12:00,
2013-07-24 12:17:00,79.1,61.5,28.90,NE,44,3.5,3.5,55,0.00,CLR,,0.05,WeatherDisplay:10.37,2013-07-24 17:17:00,
2013-07-24 12:22:00,79.3,62.7,28.90,NW,326,4.6,4.6,57,0.00,CLR,,0.05,WeatherDisplay:10.37,2013-07-24 17:22:00,
2013-07-24 12:27:00,79.7,61.6,28.90,NNE,30,4.6,4.6,54,0.00,CLR,,0.05,WeatherDisplay:10.37,2013-07-24 17:27:00,
2013-07-24 12:32:00,80.1,62.0,28.90,NW,310,3.5,3.5,54,0.00,CLR,,0.05,WeatherDisplay:10.37,2013-07-24 17:32:00,
2013-07-24 12:37:00,80.3,62.7,28.90,NE,37,4.6,4.6,55,0.00,CLR,,0.05,WeatherDisplay:10.37,2013-07-24 17:37:00,
2013-07-24 12:42:00,81.0,62.3,28.89,North,2,4.6,4.6,53,0.00,CLR,,0.05,WeatherDisplay:10.37,2013-07-24 17:42:00,
2013-07-24 12:47:00,80.7,63.0,28.89,NNE,25,3.5,3.5,55,0.00,CLR,,0.05,WeatherDisplay:10.37,2013-07-24 17:47:00,
2013-07-24 12:52:00,80.7,63.0,28.89,East,87,5.0,5.0,55,0.00,CLR,,0.05,WeatherDisplay:10.37,2013-07-24 17:52:00,
2013-07-24 12:57:00,81.0,61.7,28.90,ENE,69,3.5,3.5,52,0.00,CLR,,0.05,WeatherDisplay:10.37,2013-07-24 17:57:00,
2013-07-24 13:02:00,81.6,61.7,28.89,North,351,4.6,4.6,51,0.00,CLR,,0.05,WeatherDisplay:10.37,2013-07-24 18:02:00,
2013-07-24 13:07:00,81.9,61.4,28.89,NE,48,5.8,5.8,50,0.00,CLR,,0.05,WeatherDisplay:10.37,2013-07-24 18:07:00,
2013-07-24 13:12:00,82.0,61.5,28.90,NE,39,3.5,3.5,50,0.00,CLR,,0.05,WeatherDisplay:10.37,2013-07-24 18:12:00,
2013-07-24 13:17:00,81.5,61.1,28.88,ENE,57,3.5,3.5,50,0.00,CLR,,0.05,WeatherDisplay:10.37,2013-07-24 18:17:00,
2013-07-24 13:22:00,82.0,62.1,28.88,NW,309,5.8,5.8,51,0.00,CLR,,0.05,WeatherDisplay:10.37,2013-07-24 18:22:00,
2013-07-24 13:27:00,82.0,61.0,28.89,NNE,14,5.8,5.8,49,0.00,CLR,,0.05,WeatherDisplay:10.37,2013-07-24 18:27:00,
2013-07-24 13:32:00,82.1,62.7,28.89,ENE,68,5.0,5.0,52,0.00,CLR,,0.05,WeatherDisplay:10.37,2013-07-24 18:32:00,
2013-07-24 13:37:00,82.2,61.1,28.89,NE,40,3.5,3.5,49,0.00,CLR,,0.05,WeatherDisplay:10.37,2013-07-24 18:37:00,
2013-07-24 13:43:00,82.1,59.9,28.88,East,79,3.5,3.5,47,0.00,CLR,,0.05,WeatherDisplay:10.37,2013-07-24 18:43:00,
2013-07-24 13:48:00,82.6,62.6,28.88,NNE,31,8.1,8.1,51,0.00,CLR,,0.05,WeatherDisplay:10.37,2013-07-24 18:48:00,
2013-07-24 13:53:00,83.3,61.0,28.88,North,352,6.0,6.0,47,0.00,CLR,,0.05,WeatherDisplay:10.37,2013-07-24 18:53:00,
2013-07-24 13:58:00,82.9,60.6,28.88,NW,323,5.8,5.8,47,0.00,CLR,,0.05,WeatherDisplay:10.37,2013-07-24 18:58:00,
2013-07-24 14:03:00,82.7,61.0,28.88,NE,53,4.0,4.0,48,0.00,CLR,,0.05,WeatherDisplay:10.37,2013-07-24 19:03:00,
2013-07-24 14:08:00,83.3,62.1,28.88,East,87,3.5,3.5,49,0.00,CLR,,0.05,WeatherDisplay:10.37,2013-07-24 19:08:00,
2013-07-24 14:13:00,83.5,61.1,28.88,NE,53,6.9,6.9,47,0.00,CLR,,0.05,WeatherDisplay:10.37,2013-07-24 19:13:00,
2013-07-24 14:18:00,83.9,62.7,28.88,NE,43,2.3,2.3,49,0.00,CLR,,0.05,WeatherDisplay:10.37,2013-07-24 19:18:00,
2013-07-24 14:23:00,83.9,61.5,28.87,NE,46,6.0,6.0,47,0.00,CLR,,0.05,WeatherDisplay:10.37,2013-07-24 19:23:00,
2013-07-24 14:28:00,84.1,62.3,28.89,NW,319,3.5,3.5,48,0.00,CLR,,0.05,WeatherDisplay:10.37,2013-07-24 19:28:00,
2013-07-24 14:33:00,83.9,63.8,28.88,NW,317,2.3,2.3,51,0.00,CLR,,0.05,WeatherDisplay:10.37,2013-07-24 19:33:00,
2013-07-24 14:38:00,84.3,63.1,28.88,North,351,3.5,3.5,49,0.00,CLR,,0.05,WeatherDisplay:10.37,2013-07-24 19:38:00,
2013-07-24 14:43:00,84.3,63.1,28.88,ENE,68,3.5,3.5,49,0.00,CLR,,0.05,WeatherDisplay:10.37,2013-07-24 19:43:00,
2013-07-24 14:48:00,84.7,64.0,28.88,ENE,58,3.5,3.5,50,0.00,CLR,,0.05,WeatherDisplay:10.37,2013-07-24 19:48:00,
2013-07-24 14:53:00,84.6,62.7,28.87,ENE,70,2.3,2.3,48,0.00,CLR,,0.05,WeatherDisplay:10.37,2013-07-24 19:53:00,
2013-07-24 14:58:00,84.3,64.2,28.86,WNW,284,4.6,4.6,51,0.00,CLR,,0.05,WeatherDisplay:10.37,2013-07-24 19:58:00,
2013-07-24 15:03:00,84.3,64.2,28.87,NE,41,5.8,5.8,51,0.00,CLR,,0.05,WeatherDisplay:10.37,2013-07-24 20:03:00,
2013-07-24 15:08:00,84.5,62.1,28.87,ENE,58,3.5,3.5,47,0.00,CLR,,0.05,WeatherDisplay:10.37,2013-07-24 20:08:00,
2013-07-24 15:13:00,84.3,61.9,28.87,North,359,3.5,3.5,47,0.00,CLR,,0.05,WeatherDisplay:10.37,2013-07-24 20:13:00,
2013-07-24 15:18:00,84.1,64.0,28.87,NNW,348,5.8,5.8,51,0.00,CLR,,0.05,WeatherDisplay:10.37,2013-07-24 20:18:00,
2013-07-24 15:23:00,84.3,63.1,28.87,NW,307,5.0,5.0,49,0.00,CLR,,0.05,WeatherDisplay:10.37,2013-07-24 20:23:00,
2013-07-24 15:28:00,84.5,63.8,28.87,WNW,298,5.0,5.0,50,0.00,CLR,,0.05,WeatherDisplay:10.37,2013-07-24 20:28:00,
2013-07-24 15:33:00,84.5,62.7,28.87,NNW,347,3.5,3.5,48,0.00,CLR,,0.05,WeatherDisplay:10.37,2013-07-24 20:33:00,
2013-07-24 15:38:00,84.7,64.0,28.87,NE,49,3.5,3.5,50,0.00,CLR,,0.05,WeatherDisplay:10.37,2013-07-24 20:38:00,
2013-07-24 15:43:00,84.8,63.5,28.86,ENE,68,4.0,4.0,49,0.00,CLR,,0.05,WeatherDisplay:10.37,2013-07-24 20:43:00,
2013-07-24 15:48:00,85.3,64.0,28.87,NE,40,5.8,5.8,49,0.00,CLR,,0.05,WeatherDisplay:10.37,2013-07-24 20:48:00,
2013-07-24 15:53:00,85.4,62.9,28.86,NNE,25,3.5,3.5,47,0.00,CLR,,0.05,WeatherDisplay:10.37,2013-07-24 20:53:00,
2013-07-24 15:58:00,85.6,63.1,28.86,NE,42,3.5,3.5,47,0.00,CLR,,0.05,WeatherDisplay:10.37,2013-07-24 20:58:00,
2013-07-24 16:03:00,85.2,62.7,28.87,WNW,299,3.5,3.5,47,0.00,CLR,,0.05,WeatherDisplay:10.37,2013-07-24 21:03:00,
2013-07-24 16:08:00,85.4,62.9,28.86,East,91,5.0,5.0,47,0.00,CLR,,0.05,WeatherDisplay:10.37,2013-07-24 21:08:00,
2013-07-24 16:14:00,85.8,63.2,28.86,ENE,61,2.3,2.3,47,0.00,CLR,,0.05,WeatherDisplay:10.37,2013-07-24 21:14:00,
2013-07-24 16:19:00,86.3,63.7,28.87,NNW,344,4.6,4.6,47,0.00,CLR,,0.05,WeatherDisplay:10.37,2013-07-24 21:19:00,
2013-07-24 16:24:00,86.5,65.1,28.86,North,0,3.5,3.5,49,0.00,CLR,,0.05,WeatherDisplay:10.37,2013-07-24 21:24:00,
2013-07-24 16:29:00,85.8,62.0,28.86,NE,55,2.3,2.3,45,0.00,CLR,,0.05,WeatherDisplay:10.37,2013-07-24 21:29:00,
2013-07-24 16:34:00,85.6,63.7,28.86,NE,54,5.8,5.8,48,0.00,CLR,,0.05,WeatherDisplay:10.37,2013-07-24 21:34:00,
2013-07-24 16:39:00,85.8,63.8,28.86,NNE,19,4.0,4.0,48,0.00,CLR,,0.05,WeatherDisplay:10.37,2013-07-24 21:39:00,
2013-07-24 16:44:00,85.6,63.1,28.85,NNE,12,3.5,3.5,47,0.00,CLR,,0.05,WeatherDisplay:10.37,2013-07-24 21:44:00,
2013-07-24 16:49:00,85.5,63.6,28.85,North,351,4.6,4.6,48,0.00,CLR,,0.05,WeatherDisplay:10.37,2013-07-24 21:49:00,
2013-07-24 16:54:00,85.5,64.2,28.86,WNW,287,3.5,3.5,49,0.00,CLR,,0.05,WeatherDisplay:10.37,2013-07-24 21:54:00,
2013-07-24 16:59:00,85.9,65.1,28.85,North,0,2.3,2.3,50,0.00,CLR,,0.05,WeatherDisplay:10.37,2013-07-24 21:59:00,
2013-07-24 17:04:00,86.5,66.8,28.86,NNW,347,3.5,3.5,52,0.00,CLR,,0.05,WeatherDisplay:10.37,2013-07-24 22:04:00,
2013-07-24 17:09:00,86.3,64.3,28.85,West,263,4.6,4.6,48,0.00,CLR,,0.05,WeatherDisplay:10.37,2013-07-24 22:09:00,
2013-07-24 17:14:00,86.1,65.3,28.85,NE,50,4.6,4.6,50,0.00,CLR,,0.05,WeatherDisplay:10.37,2013-07-24 22:14:00,
2013-07-24 17:19:00,86.1,63.5,28.85,NE,42,4.6,4.6,47,0.00,CLR,,0.05,WeatherDisplay:10.37,2013-07-24 22:19:00,
2013-07-24 17:24:00,86.3,63.7,28.85,NW,305,4.6,4.6,47,0.00,CLR,,0.05,WeatherDisplay:10.37,2013-07-24 22:24:00,
2013-07-24 17:29:00,85.9,63.3,28.85,ENE,59,3.5,3.5,47,0.00,CLR,,0.05,WeatherDisplay:10.37,2013-07-24 22:29:00,
2013-07-24 17:34:00,85.9,63.3,28.85,ENE,62,3.5,3.5,47,0.00,CLR,,0.05,WeatherDisplay:10.37,2013-07-24 22:34:00,
2013-07-24 17:39:00,86.1,62.9,28.85,ENE,78,6.9,6.9,46,0.00,CLR,,0.05,WeatherDisplay:10.37,2013-07-24 22:39:00,
2013-07-24 17:44:00,86.1,63.5,28.84,East,79,3.5,3.5,47,0.00,CLR,,0.05,WeatherDisplay:10.37,2013-07-24 22:44:00,
2013-07-24 17:49:00,85.9,63.3,28.84,ENE,75,3.5,3.5,47,0.00,CLR,,0.05,WeatherDisplay:10.37,2013-07-24 22:49:00,
2013-07-24 17:54:00,85.6,63.1,28.85,ENE,57,5.8,5.8,47,0.00,CLR,,0.05,WeatherDisplay:10.37,2013-07-24 22:54:00,
2013-07-24 17:59:00,85.9,64.5,28.85,ENE,77,3.5,3.5,49,0.00,CLR,,0.05,WeatherDisplay:10.37,2013-07-24 22:59:00,
2013-07-24 18:04:00,85.7,63.1,28.85,ENE,61,6.9,6.9,47,0.00,CLR,,0.05,WeatherDisplay:10.37,2013-07-24 23:04:00,
2013-07-24 18:09:00,85.5,63.0,28.85,ENE,60,3.5,3.5,47,0.00,CLR,,0.05,WeatherDisplay:10.37,2013-07-24 23:09:00,
2013-07-24 18:14:00,85.2,62.7,28.84,NE,42,5.8,5.8,47,0.00,CLR,,0.05,WeatherDisplay:10.37,2013-07-24 23:14:00,
2013-07-24 18:19:00,85.1,63.2,28.85,NNW,346,2.3,2.3,48,0.00,CLR,,0.05,WeatherDisplay:10.37,2013-07-24 23:19:00,
2013-07-24 18:24:00,85.1,63.2,28.84,NNW,347,3.5,3.5,48,0.00,CLR,,0.05,WeatherDisplay:10.37,2013-07-24 23:24:00,
2013-07-24 18:29:00,84.9,63.0,28.84,NNE,30,3.5,3.5,48,0.00,CLR,,0.05,WeatherDisplay:10.37,2013-07-24 23:29:00,
2013-07-24 18:34:00,84.7,62.2,28.84,North,352,3.5,3.5,47,0.00,CLR,,0.05,WeatherDisplay:10.37,2013-07-24 23:34:00,
2013-07-24 18:39:00,84.9,63.0,28.84,NNE,21,4.6,4.6,48,0.00,CLR,,0.05,WeatherDisplay:10.37,2013-07-24 23:39:00,
2013-07-24 18:44:00,84.9,63.0,28.84,NE,51,4.6,4.6,48,0.00,CLR,,0.05,WeatherDisplay:10.37,2013-07-24 23:44:00,
2013-07-24 18:49:00,85.1,63.8,28.84,North,0,3.5,3.5,49,0.00,CLR,,0.05,WeatherDisplay:10.37,2013-07-24 23:49:00,
2013-07-24 18:54:00,85.3,62.8,28.84,WNW,298,5.8,5.8,47,0.00,CLR,,0.05,WeatherDisplay:10.37,2013-07-24 23:54:00,
2013-07-24 18:59:00,84.7,62.2,28.85,NNW,341,4.6,4.6,47,0.00,CLR,,0.05,WeatherDisplay:10.37,2013-07-24 23:59:00,
2013-07-24 19:04:00,84.3,63.1,28.85,NNW,341,1.1,1.1,49,0.00,CLR,,0.05,WeatherDisplay:10.37,2013-07-25 00:04:00,
2013-07-24 19:09:00,83.9,62.7,28.84,ENE,59,3.5,3.5,49,0.00,CLR,,0.05,WeatherDisplay:10.37,2013-07-25 00:09:00,
2013-07-24 19:14:00,83.3,62.7,28.84,ENE,59,3.5,3.5,50,0.00,CLR,,0.05,WeatherDisplay:10.37,2013-07-25 00:14:00,
2013-07-24 19:19:00,82.8,62.8,28.85,ENE,59,3.5,3.5,51,0.00,CLR,,0.05,WeatherDisplay:10.37,2013-07-25 00:19:00,
2013-07-24 19:24:00,82.5,62.0,28.84,ENE,59,3.5,3.5,50,0.00,CLR,,0.05,WeatherDisplay:10.37,2013-07-25 00:24:00,
2013-07-24 19:29:00,82.4,62.5,28.84,ENE,70,3.5,3.5,51,0.00,CLR,,0.05,WeatherDisplay:10.37,2013-07-25 00:29:00,
2013-07-24 19:34:00,82.1,62.7,28.84,ENE,71,1.0,0.0,52,0.00,CLR,,0.05,WeatherDisplay:10.37,2013-07-25 00:34:00,
2013-07-24 19:39:00,81.8,62.5,28.84,ENE,64,4.0,4.0,52,0.00,CLR,,0.05,WeatherDisplay:10.37,2013-07-25 00:39:00,
2013-07-24 19:44:00,81.6,61.7,28.84,ENE,64,3.5,3.5,51,0.00,CLR,,0.05,WeatherDisplay:10.37,2013-07-25 00:44:00,
2013-07-24 19:49:00,81.4,61.5,28.84,ENE,57,2.3,2.3,51,0.00,CLR,,0.05,WeatherDisplay:10.37,2013-07-25 00:49:00,
2013-07-24 19:54:00,81.2,61.9,28.84,ENE,63,3.0,3.0,52,0.00,CLR,,0.05,WeatherDisplay:10.37,2013-07-25 00:54:00,
2013-07-24 19:59:00,81.0,61.7,28.84,NE,47,2.3,2.3,52,0.00,CLR,,0.05,WeatherDisplay:10.37,2013-07-25 00:59:00,
2013-07-24 20:04:00,80.8,62.6,28.85,NE,46,1.1,1.1,54,0.00,CLR,,0.05,WeatherDisplay:10.37,2013-07-25 01:04:00,
2013-07-24 20:09:00,80.5,62.3,28.85,NE,47,2.3,2.3,54,0.00,CLR,,0.05,WeatherDisplay:10.37,2013-07-25 01:09:00,
2013-07-24 20:14:00,80.1,62.5,28.85,NE,47,1.1,0.0,55,0.00,CLR,,0.05,WeatherDisplay:10.37,2013-07-25 01:14:00,
2013-07-24 20:19:00,79.7,63.1,28.85,NE,47,1.1,1.1,57,0.00,CLR,,0.05,WeatherDisplay:10.37,2013-07-25 01:19:00,
2013-07-24 20:24:00,79.2,62.1,28.86,NE,47,1.1,0.0,56,0.00,CLR,,0.05,WeatherDisplay:10.37,2013-07-25 01:24:00,
2013-07-24 20:29:00,78.6,62.1,28.85,NE,47,1.1,1.1,57,0.00,CLR,,0.05,WeatherDisplay:10.37,2013-07-25 01:29:00,
2013-07-24 20:34:00,78.3,61.8,28.86,NE,46,3.5,3.5,57,0.00,CLR,,0.05,WeatherDisplay:10.37,2013-07-25 01:34:00,
2013-07-24 20:40:00,77.7,62.2,28.86,NE,47,1.1,1.1,59,0.00,CLR,,0.05,WeatherDisplay:10.37,2013-07-25 01:40:00,
2013-07-24 20:45:00,77.2,61.8,28.85,NE,47,0.0,0.0,59,0.00,CLR,,0.05,WeatherDisplay:10.37,2013-07-25 01:45:00,
2013-07-24 20:50:00,76.6,61.7,28.86,NE,47,0.0,0.0,60,0.00,CLR,,0.05,WeatherDisplay:10.37,2013-07-25 01:50:00,
2013-07-24 20:55:00,76.3,61.9,28.85,NE,47,0.0,0.0,61,0.00,CLR,,0.05,WeatherDisplay:10.37,2013-07-25 01:55:00,
2013-07-24 21:00:00,75.8,61.8,28.85,NE,46,0.0,0.0,62,0.00,CLR,,0.05,WeatherDisplay:10.37,2013-07-25 02:00:00,
2013-07-24 21:05:00,75.4,62.4,28.85,NE,46,0.0,0.0,64,0.00,CLR,,0.05,WeatherDisplay:10.37,2013-07-25 02:05:00,
2013-07-24 21:10:00,74.9,61.9,28.86,NE,47,0.0,0.0,64,0.00,CLR,,0.05,WeatherDisplay:10.37,2013-07-25 02:10:00,
2013-07-24 21:15:00,74.5,62.0,28.86,NE,46,0.0,0.0,65,0.00,CLR,,0.05,WeatherDisplay:10.37,2013-07-25 02:15:00,
2013-07-24 21:20:00,74.2,61.7,28.86,NE,47,3.5,3.5,65,0.00,CLR,,0.05,WeatherDisplay:10.37,2013-07-25 02:20:00,
2013-07-24 21:25:00,74.2,62.1,28.86,NE,39,5.8,5.8,66,0.00,CLR,,0.05,WeatherDisplay:10.37,2013-07-25 02:25:00,
2013-07-24 21:30:00,74.3,61.8,28.85,NE,54,2.3,2.3,65,0.00,CLR,,0.05,WeatherDisplay:10.37,2013-07-25 02:30:00,
2013-07-24 21:35:00,74.5,62.0,28.86,East,82,3.5,3.5,65,0.00,CLR,,0.05,WeatherDisplay:10.37,2013-07-25 02:35:00,
2013-07-24 21:40:00,74.7,61.7,28.86,East,81,3.5,3.5,64,0.00,CLR,,0.05,WeatherDisplay:10.37,2013-07-25 02:40:00,
2013-07-24 21:45:00,74.9,61.9,28.86,ESE,105,4.0,4.0,64,0.00,CLR,,0.05,WeatherDisplay:10.37,2013-07-25 02:45:00,
2013-07-24 21:51:00,75.0,61.5,28.86,East,86,2.3,2.3,63,0.00,CLR,,0.05,WeatherDisplay:10.37,2013-07-25 02:51:00,
2013-07-24 21:56:00,75.2,61.7,28.87,ENE,57,4.6,4.6,63,0.00,CLR,,0.05,WeatherDisplay:10.37,2013-07-25 02:56:00,
2013-07-24 22:01:00,75.2,61.3,28.87,ENE,57,2.3,2.3,62,0.00,CLR,,0.05,WeatherDisplay:10.37,2013-07-25 03:01:00,
2013-07-24 22:06:00,75.0,61.5,28.87,ENE,58,3.5,3.5,63,0.00,CLR,,0.05,WeatherDisplay:10.37,2013-07-25 03:06:00,
2013-07-24 22:11:00,74.9,61.5,28.88,ENE,58,3.5,3.5,63,0.00,CLR,,0.05,WeatherDisplay:10.37,2013-07-25 03:11:00,
2013-07-24 22:17:00,74.7,61.7,28.88,ENE,72,3.5,3.5,64,0.00,CLR,,0.05,WeatherDisplay:10.37,2013-07-25 03:17:00,
2013-07-24 22:22:00,74.4,61.4,28.87,ENE,72,2.3,2.3,64,0.00,CLR,,0.05,WeatherDisplay:10.37,2013-07-25 03:22:00,
2013-07-24 22:27:00,74.0,61.5,28.88,ENE,72,0.0,0.0,65,0.00,CLR,,0.05,WeatherDisplay:10.37,2013-07-25 03:27:00,
2013-07-24 22:32:00,73.7,61.2,28.88,ENE,72,1.1,1.1,65,0.00,CLR,,0.05,WeatherDisplay:10.37,2013-07-25 03:32:00,
2013-07-24 22:37:00,73.4,61.3,28.88,ENE,72,2.3,2.3,66,0.00,CLR,,0.05,WeatherDisplay:10.37,2013-07-25 03:37:00,
2013-07-24 22:42:00,73.0,61.4,28.88,ENE,72,2.3,2.3,67,0.00,CLR,,0.05,WeatherDisplay:10.37,2013-07-25 03:42:00,
2013-07-24 22:47:00,72.6,61.0,28.89,ENE,72,2.3,2.3,67,0.00,CLR,,0.05,WeatherDisplay:10.37,2013-07-25 03:47:00,
2013-07-24 22:52:00,72.5,61.3,28.88,ENE,71,0.0,0.0,68,0.00,CLR,,0.05,WeatherDisplay:10.37,2013-07-25 03:52:00,
2013-07-24 22:57:00,72.1,61.4,28.89,ENE,71,3.0,3.0,69,0.00,CLR,,0.05,WeatherDisplay:10.37,2013-07-25 03:57:00,
2013-07-24 23:01:00,72.0,61.3,28.89,ENE,71,2.0,2.0,69,0.00,CLR,,0.05,WeatherDisplay:10.37,2013-07-25 04:01:00,
2013-07-24 23:02:00,71.8,61.1,28.88,ENE,71,3.5,3.5,69,0.00,CLR,,0.05,WeatherDisplay:10.37,2013-07-25 04:02:00,
2013-07-24 23:03:00,71.8,61.1,28.89,ENE,71,2.3,2.3,69,0.00,CLR,,0.05,WeatherDisplay:10.37,2013-07-25 04:03:00,
2013-07-24 23:08:00,71.7,61.4,28.88,ENE,69,3.5,3.5,70,0.00,CLR,,0.05,WeatherDisplay:10.37,2013-07-25 04:08:00,
2013-07-24 23:13:00,71.5,61.2,28.88,ENE,69,3.5,0.0,70,0.00,CLR,,0.05,WeatherDisplay:10.37,2013-07-25 04:13:00,
2013-07-24 23:18:00,71.3,61.4,28.88,ENE,69,2.3,2.3,71,0.00,CLR,,0.05,WeatherDisplay:10.37,2013-07-25 04:18:00,
2013-07-24 23:23:00,71.1,61.6,28.89,ENE,69,0.0,0.0,72,0.00,CLR,,0.05,WeatherDisplay:10.37,2013-07-25 04:23:00,
2013-07-24 23:28:00,71.0,61.5,28.90,ENE,69,0.0,0.0,72,0.00,CLR,,0.05,WeatherDisplay:10.37,2013-07-25 04:28:00,
2013-07-24 23:33:00,70.8,61.7,28.90,ENE,69,0.0,0.0,73,0.00,CLR,,0.05,WeatherDisplay:10.37,2013-07-25 04:33:00,
2013-07-24 23:39:00,70.6,61.9,28.89,ENE,69,0.0,0.0,74,0.00,CLR,,0.05,WeatherDisplay:10.37,2013-07-25 04:39:00,
2013-07-24 23:44:00,70.4,61.7,28.90,ENE,69,0.0,0.0,74,0.00,CLR,,0.05,WeatherDisplay:10.37,2013-07-25 04:44:00,
2013-07-24 23:49:00,70.4,61.7,28.90,ENE,69,0.0,0.0,74,0.00,CLR,,0.05,WeatherDisplay:10.37,2013-07-25 04:49:00,
2013-07-24 23:54:00,70.3,62.0,28.90,ENE,69,0.0,0.0,75,0.00,CLR,,0.05,WeatherDisplay:10.37,2013-07-25 04:54:00,
2013-07-24 23:59:00,70.0,61.7,28.92,ENE,69,0.0,0.0,75,0.00,CLR,,0.05,WeatherDisplay:10.37,2013-07-25 04:59:00,